When you browse on this site, cookies collect data to enhance your experience and personalize the content and advertising you see.
Visit our Privacy Policy to learn more. By continuing to use the site, you agree to this use of cookies and data.
  • In Hungary
  • List of Countries
  • For 7 days
  • Water Temperature
  • Weather Map
  • News
  • Weather Widgets
  • user-avatar
    Login

    Hourly Weather Gamboma

    Today, 15 November, Friday

    Time Temperature Precipitation Wind Pressure Humidity
    00:00 +24°C° 0 mm 0 mps 727 mmHg 83%
    01:00 +23°C° 0 mm 0 mps 726 mmHg 84%
    02:00 +23°C° 1.1 mm 0 mps 726 mmHg 87%
    03:00 +22°C° 1.1 mm 0 mps 726 mmHg 90%
    04:00 +24°C° 1.1 mm 1 mps 726 mmHg 93%
    05:00 +24°C° 2.4 mm 1 mps 727 mmHg 94%
    06:00 +24°C° 2.4 mm 1 mps 727 mmHg 95%
    07:00 +24°C° 0 mm 1 mps 728 mmHg 96%
    08:00 +25°C° 1.1 mm 1 mps 728 mmHg 94%
    09:00 +26°C° 1.1 mm 1 mps 728 mmHg 92%
    10:00 +27°C° 1.1 mm 2 mps 728 mmHg 89%
    11:00 +28°C° 1.4 mm 1 mps 727 mmHg 83%
    12:00 +30°C° 1.4 mm 1 mps 726 mmHg 76%
    13:00 +29°C° 1.4 mm 0 mps 726 mmHg 70%
    14:00 +29°C° 0.5 mm 0 mps 725 mmHg 70%
    15:00 +29°C° 0.5 mm 0 mps 724 mmHg 70%
    16:00 +31°C° 0.5 mm 1 mps 723 mmHg 69%
    17:00 +29°C° 0 mm 1 mps 724 mmHg 74%
    18:00 +26°C° 0 mm 0 mps 725 mmHg 79%
    19:00 +25°C° 0 mm 0 mps 725 mmHg 84%
    20:00 +24°C° 0.2 mm 0 mps 726 mmHg 85%
    21:00 +26°C° 0.2 mm 1 mps 726 mmHg 87%
    22:00 +26°C° 0.2 mm 1 mps 726 mmHg 88%
    23:00 +26°C° 0.1 mm 1 mps 726 mmHg 89%

    Tomorrow, 16 November, Saturday

    Time Temperature Precipitation Wind Pressure Humidity
    00:00 +25°C° 0.1 mm 1 mps 726 mmHg 90%
    01:00 +25°C° 0.1 mm 1 mps 726 mmHg 91%
    02:00 +25°C° 0 mm 1 mps 725 mmHg 91%
    03:00 +25°C° 0 mm 1 mps 725 mmHg 91%
    04:00 +24°C° 0 mm 1 mps 725 mmHg 92%
    05:00 +25°C° 0 mm 1 mps 725 mmHg 90%
    06:00 +26°C° 0 mm 1 mps 726 mmHg 88%
    07:00 +26°C° 0 mm 1 mps 727 mmHg 87%
    08:00 +28°C° 0.7 mm 1 mps 727 mmHg 81%
    09:00 +29°C° 0.7 mm 2 mps 727 mmHg 76%
    10:00 +31°C° 0.7 mm 2 mps 727 mmHg 71%
    11:00 +31°C° 2.4 mm 2 mps 726 mmHg 72%
    12:00 +31°C° 2.4 mm 2 mps 726 mmHg 73%
    13:00 +31°C° 2.4 mm 2 mps 725 mmHg 73%
    14:00 +30°C° 2.5 mm 2 mps 724 mmHg 79%
    15:00 +28°C° 2.5 mm 2 mps 724 mmHg 84%
    16:00 +27°C° 2.5 mm 1 mps 724 mmHg 90%
    17:00 +26°C° 0.4 mm 1 mps 724 mmHg 91%
    18:00 +26°C° 0.4 mm 2 mps 725 mmHg 92%
    19:00 +25°C° 0.4 mm 2 mps 726 mmHg 94%
    20:00 +25°C° 0.1 mm 2 mps 726 mmHg 94%
    21:00 +25°C° 0.1 mm 2 mps 726 mmHg 94%
    22:00 +24°C° 0.1 mm 2 mps 727 mmHg 94%
    23:00 +24°C° 0.1 mm 2 mps 726 mmHg 94%

    Day after tomorrow, 17 November, Sunday

    Time Temperature Precipitation Wind Pressure Humidity
    00:00 +24°C° 0.1 mm 1 mps 726 mmHg 94%
    01:00 +24°C° 0.1 mm 1 mps 726 mmHg 94%
    02:00 +24°C° 0.3 mm 1 mps 726 mmHg 95%
    03:00 +24°C° 0.3 mm 1 mps 726 mmHg 95%
    04:00 +23°C° 0.3 mm 1 mps 725 mmHg 96%
    05:00 +24°C° 0 mm 1 mps 726 mmHg 95%
    06:00 +25°C° 0 mm 2 mps 727 mmHg 93%
    07:00 +25°C° 0 mm 2 mps 727 mmHg 92%
    08:00 +27°C° 0 mm 2 mps 727 mmHg 83%
    09:00 +29°C° 0 mm 2 mps 728 mmHg 74%
    10:00 +30°C° 0 mm 2 mps 728 mmHg 66%
    11:00 +31°C° 0.4 mm 2 mps 727 mmHg 65%
    12:00 +31°C° 0.4 mm 2 mps 726 mmHg 65%
    13:00 +32°C° 0.4 mm 2 mps 725 mmHg 65%
    14:00 +31°C° 1.2 mm 2 mps 725 mmHg 70%
    15:00 +30°C° 1.2 mm 2 mps 725 mmHg 75%
    16:00 +30°C° 1.2 mm 1 mps 724 mmHg 80%
    17:00 +28°C° 0.7 mm 1 mps 725 mmHg 83%
    18:00 +27°C° 0.7 mm 1 mps 726 mmHg 87%
    19:00 +26°C° 0.7 mm 1 mps 726 mmHg 90%
    20:00 +25°C° 0 mm 1 mps 727 mmHg 91%
    21:00 +25°C° 0 mm 1 mps 727 mmHg 92%
    22:00 +25°C° 0 mm 1 mps 727 mmHg 92%
    23:00 +24°C° 0.2 mm 1 mps 727 mmHg 93%

    18 November, Monday

    Time Temperature Precipitation Wind Pressure Humidity
    00:00 +24°C° 0.2 mm 1 mps 727 mmHg 93%
    01:00 +24°C° 0.2 mm 1 mps 727 mmHg 94%
    02:00 +22°C° 0.9 mm 0 mps 727 mmHg 94%
    03:00 +22°C° 0.9 mm 0 mps 726 mmHg 94%
    04:00 +22°C° 0.9 mm 0 mps 726 mmHg 94%
    05:00 +24°C° 1 mm 1 mps 727 mmHg 95%
    06:00 +24°C° 1 mm 1 mps 728 mmHg 96%
    07:00 +24°C° 1 mm 1 mps 728 mmHg 96%
    08:00 +25°C° 0.1 mm 2 mps 728 mmHg 93%
    09:00 +25°C° 0.1 mm 2 mps 728 mmHg 90%
    10:00 +26°C° 0.1 mm 2 mps 728 mmHg 87%
    11:00 +27°C° 0 mm 2 mps 728 mmHg 85%
    12:00 +27°C° 0 mm 2 mps 727 mmHg 82%
    13:00 +28°C° 0 mm 2 mps 726 mmHg 79%
    14:00 +28°C° 0 mm 2 mps 726 mmHg 77%
    15:00 +28°C° 0 mm 2 mps 725 mmHg 75%
    16:00 +29°C° 0 mm 1 mps 725 mmHg 73%
    17:00 +28°C° 0 mm 1 mps 725 mmHg 78%
    18:00 +26°C° 0 mm 1 mps 726 mmHg 84%
    19:00 +25°C° 0 mm 1 mps 726 mmHg 89%
    20:00 +25°C° 0 mm 1 mps 727 mmHg 89%
    21:00 +24°C° 0 mm 1 mps 727 mmHg 90%
    22:00 +24°C° 0 mm 1 mps 728 mmHg 90%
    23:00 +24°C° 0 mm 1 mps 727 mmHg 91%

    19 November, Tuesday

    Time Temperature Precipitation Wind Pressure Humidity
    00:00 +24°C° 0 mm 1 mps 727 mmHg 91%
    01:00 +24°C° 0 mm 1 mps 727 mmHg 91%
    02:00 +24°C° 0 mm 1 mps 727 mmHg 92%
    03:00 +24°C° 0 mm 1 mps 727 mmHg 92%
    04:00 +24°C° 0 mm 1 mps 727 mmHg 93%
    05:00 +24°C° 0 mm 1 mps 728 mmHg 92%
    06:00 +24°C° 0 mm 1 mps 728 mmHg 91%
    07:00 +25°C° 0 mm 1 mps 729 mmHg 90%
    08:00 +26°C° 0 mm 1 mps 729 mmHg 82%
    09:00 +28°C° 0 mm 1 mps 729 mmHg 74%
    10:00 +30°C° 0 mm 2 mps 729 mmHg 66%
    11:00 +31°C° 0 mm 2 mps 728 mmHg 61%
    12:00 +32°C° 0 mm 2 mps 727 mmHg 56%
    13:00 +34°C° 0 mm 1 mps 727 mmHg 50%
    14:00 +33°C° 0 mm 1 mps 726 mmHg 52%
    15:00 +33°C° 0 mm 1 mps 726 mmHg 54%
    16:00 +32°C° 0 mm 1 mps 725 mmHg 56%
    17:00 +31°C° 0 mm 1 mps 726 mmHg 61%
    18:00 +29°C° 0 mm 1 mps 726 mmHg 65%
    19:00 +28°C° 0 mm 1 mps 726 mmHg 70%
    20:00 +27°C° 0.1 mm 1 mps 727 mmHg 74%
    21:00 +26°C° 0.1 mm 1 mps 727 mmHg 79%
    22:00 +25°C° 0.1 mm 1 mps 727 mmHg 84%
    23:00 +25°C° 0 mm 1 mps 727 mmHg 85%

    20 November, Wednesday

    Time Temperature Precipitation Wind Pressure Humidity
    00:00 +22°C° 0 mm 0 mps 727 mmHg 86%
    01:00 +22°C° 0 mm 0 mps 727 mmHg 87%
    02:00 +22°C° 0 mm 0 mps 726 mmHg 88%
    03:00 +21°C° 0 mm 0 mps 726 mmHg 88%
    04:00 +21°C° 0 mm 0 mps 726 mmHg 88%
    05:00 +22°C° 0 mm 0 mps 727 mmHg 86%
    06:00 +23°C° 0 mm 0 mps 727 mmHg 84%
    07:00 +23°C° 0 mm 0 mps 728 mmHg 82%
    08:00 +25°C° 0 mm 0 mps 728 mmHg 73%
    09:00 +30°C° 0 mm 1 mps 728 mmHg 65%
    10:00 +32°C° 0 mm 1 mps 728 mmHg 56%
    11:00 +33°C° 0 mm 1 mps 727 mmHg 53%
    12:00 +34°C° 0 mm 1 mps 727 mmHg 49%
    13:00 +36°C° 0 mm 2 mps 726 mmHg 45%
    14:00 +34°C° 0 mm 1 mps 725 mmHg 49%
    15:00 +34°C° 0 mm 1 mps 725 mmHg 52%
    16:00 +33°C° 0 mm 1 mps 724 mmHg 55%
    17:00 +32°C° 0 mm 1 mps 724 mmHg 59%
    18:00 +30°C° 0 mm 1 mps 725 mmHg 63%
    19:00 +26°C° 0 mm 0 mps 725 mmHg 67%
    20:00 +26°C° 0 mm 0 mps 726 mmHg 68%
    21:00 +25°C° 0 mm 0 mps 726 mmHg 69%
    22:00 +25°C° 0 mm 0 mps 726 mmHg 70%
    23:00 +25°C° 0 mm 0 mps 726 mmHg 72%
    Show more